| time (UTC) | temp F | wind direction | speed knots | gust knots | rain 1hr in | rain 24hr in | rain mn in | humidity % | barometer mb |
| 20260503021504 | 54 | 340 | 0.9 | 0.0 | 0.00 | 0.00 | 0.00 | 71 | 1019.0 |
| 20260503013005 | 55 | 350 | 1.7 | 0.0 | 0.00 | 0.00 | 0.00 | 66 | 1019.0 |
| 20260503010004 | 59 | 350 | 4.3 | 0.0 | 0.00 | 0.00 | 0.00 | 58 | 1020.0 |
| 20260503004504 | 59 | 270 | 4.3 | 0.0 | 0.00 | 0.00 | 0.00 | 58 | 1020.0 |
| 20260503003004 | 59 | 270 | 4.3 | 0.0 | 0.00 | 0.00 | 0.00 | 58 | 1020.0 |
| 20260503001504 | 59 | 250 | 6.1 | 0.0 | 0.00 | 0.00 | 0.00 | 67 | 1020.0 |
| 20260503000004 | 59 | 250 | 6.1 | 0.0 | 0.00 | 0.00 | 0.00 | 67 | 1020.0 |
| 20260502234504 | 61 | 240 | 6.1 | 0.0 | 0.00 | 0.00 | 0.00 | 63 | 1020.0 |
| 20260502233004 | 61 | 240 | 6.1 | 0.0 | 0.00 | 0.00 | 0.00 | 63 | 1020.0 |
| 20260502231503 | 61 | 230 | 6.1 | 0.0 | 0.00 | 0.00 | 0.00 | 72 | 1020.0 |
| 20260502230005 | 61 | 230 | 6.1 | 0.0 | 0.00 | 0.00 | 0.00 | 72 | 1020.0 |
| 20260502224504 | 63 | 220 | 6.1 | 0.0 | 0.00 | 0.00 | 0.00 | 72 | 1020.0 |
| 20260502213004 | 63 | 250 | 6.1 | 0.0 | 0.00 | 0.00 | 0.00 | 51 | 1020.0 |
| 20260502211504 | 64 | 240 | 7.8 | 0.0 | 0.00 | 0.00 | 0.00 | 45 | 1020.0 |
| 20260502204504 | 63 | 250 | 6.1 | 0.0 | 0.00 | 0.00 | 0.00 | 63 | 1020.0 |
| 20260502203005 | 63 | 250 | 6.1 | 0.0 | 0.00 | 0.00 | 0.00 | 63 | 1020.0 |
| 20260502201503 | 64 | 220 | 5.2 | 0.0 | 0.00 | 0.00 | 0.00 | 72 | 1020.0 |
| 20260502193004 | 66 | 190 | 5.2 | 0.0 | 0.00 | 0.00 | 0.00 | 68 | 1020.0 |
| 20260502184503 | 68 | 180 | 6.1 | 0.0 | 0.00 | 0.00 | 0.00 | 52 | 1020.0 |
| 20260502183005 | 68 | 180 | 6.1 | 0.0 | 0.00 | 0.00 | 0.00 | 52 | 1020.0 |
| 20260502163004 | 70 | 180 | 6.1 | 0.0 | 0.00 | 0.00 | 0.00 | 46 | 1021.0 |
| 20260502161503 | 72 | 180 | 7.0 | 0.0 | 0.00 | 0.00 | 0.00 | 40 | 1021.0 |
| 20260502123005 | 70 | 180 | 5.2 | 0.0 | 0.00 | 0.00 | 0.00 | 40 | 1024.0 |
| 20260502114504 | 68 | 190 | 5.2 | 0.0 | 0.00 | 0.00 | 0.00 | 45 | 1024.0 |
| 20260502113005 | 68 | 190 | 5.2 | 0.0 | 0.00 | 0.00 | 0.00 | 45 | 1024.0 |
| 20260502104504 | 64 | 190 | 4.3 | 0.0 | 0.00 | 0.00 | 0.00 | 52 | 1025.0 |
| 20260502070004 | 55 | 60 | 2.6 | 0.0 | 0.00 | 0.00 | 0.00 | 62 | 1026.0 |
| 20260502064504 | 54 | 20 | 5.2 | 0.0 | 0.00 | 0.00 | 0.00 | 62 | 1026.0 |
| 20260502063004 | 54 | 20 | 5.2 | 0.0 | 0.00 | 0.00 | 0.00 | 62 | 1026.0 |
| 20260502060004 | 52 | 20 | 6.1 | 0.0 | 0.00 | 0.00 | 0.00 | 66 | 1026.0 |
| 20260502054504 | 50 | 350 | 5.2 | 0.0 | 0.00 | 0.00 | 0.00 | 66 | 1026.0 |
| 20260502053004 | 50 | 350 | 5.2 | 0.0 | 0.00 | 0.00 | 0.00 | 66 | 1026.0 |
| 20260502051504 | 50 | 340 | 4.3 | 0.0 | 0.00 | 0.00 | 0.00 | 66 | 1026.0 |
| 20260502044505 | 48 | 340 | 4.3 | 0.0 | 0.00 | 0.00 | 0.00 | 70 | 1026.0 |
| 20260502043004 | 48 | 340 | 4.3 | 0.0 | 0.00 | 0.00 | 0.00 | 70 | 1026.0 |
| 20260502041504 | 48 | 330 | 4.3 | 0.0 | 0.00 | 0.00 | 0.00 | 70 | 1026.0 |
| 20260502033004 | 48 | 340 | 1.7 | 0.0 | 0.00 | 0.00 | 0.00 | 76 | 1026.0 |
| 20260502024504 | 52 | 0 | 0.9 | 0.0 | 0.00 | 0.00 | 0.00 | 62 | 1026.0 |
| 20260502023005 | 52 | 0 | 0.9 | 0.0 | 0.00 | 0.00 | 0.00 | 62 | 1026.0 |